QPF
0.02 0.01 0.00 0.01 0.00 0.00 0.00 0.00 0.01 0.01 0.01 0.01 0.00 0.00 0.01 0.01 0.00 0.01 0.02 0.03 0.04 0.04 0.04 0.06 0.08 0.08 0.06 0.05 0.05 0.06 0.06 0.05 0.04 0.04 0.04 0.06 0.07 0.08 0.09 0.13 0.20 0.22 0.20 0.22 0.19 0.13 0.14 0.15 0.14
0.02 0.01 0.01 0.01 0.00 0.00 0.00 0.00 0.01 0.01 0.01 0.01 0.01 0.00 0.00 0.00 0.00 0.01 0.03 0.04 0.05 0.03 0.03 0.05 0.08 0.06 0.06 0.05 0.05 0.03 0.04 0.05 0.04 0.03 0.03 0.04 0.04 0.05 0.04 0.09 0.16 0.16 0.19 0.22 0.17 0.12 0.16 0.25 0.25
0.02 0.01 0.01 0.00 0.00 0.00 0.00 0.00 0.01 0.01 0.00 0.00 0.00 0.00 0.00 0.00 0.00 0.01 0.03 0.04 0.03 0.02 0.02 0.05 0.07 0.07 0.07 0.04 0.03 0.02 0.03 0.04 0.04 0.03 0.02 0.03 0.03 0.04 0.02 0.02 0.04 0.07 0.12 0.12 0.11 0.08 0.08 0.12 0.19
0.01 0.01 0.00 0.00 0.00 0.00 0.00 0.00 0.01 0.01 0.00 0.00 0.00 0.00 0.00 0.01 0.01 0.01 0.02 0.02 0.01 0.01 0.02 0.03 0.05 0.06 0.06 0.06 0.03 0.03 0.03 0.04 0.04 0.03 0.03 0.03 0.03 0.03 0.02 0.01 0.01 0.03 0.05 0.06 0.08 0.07 0.07 0.06 0.09
0.02 0.01 0.00 0.00 0.00 0.00 0.01 0.01 0.01 0.00 0.00 0.00 0.00 0.00 0.00 0.01 0.02 0.02 0.01 0.01 0.01 0.01 0.01 0.03 0.06 0.07 0.06 0.05 0.04 0.03 0.03 0.04 0.05 0.04 0.03 0.03 0.03 0.03 0.02 0.02 0.02 0.04 0.04 0.05 0.06 0.06 0.06 0.07 0.09
0.01 0.00 0.00 0.00 0.00 0.00 0.01 0.01 0.00 0.00 0.00 0.00 0.00 0.01 0.00 0.02 0.02 0.02 0.01 0.01 0.01 0.01 0.02 0.04 0.06 0.06 0.06 0.05 0.04 0.03 0.03 0.04 0.06 0.06 0.04 0.05 0.04 0.04 0.03 0.03 0.02 0.03 0.03 0.04 0.05 0.05 0.07 0.07 0.08
0.01 0.01 0.00 0.00 0.00 0.01 0.01 0.01 0.01 0.01 0.01 0.00 0.00 0.01 0.01 0.02 0.02 0.02 0.02 0.01 0.01 0.01 0.01 0.02 0.03 0.04 0.05 0.05 0.05 0.05 0.04 0.04 0.04 0.05 0.05 0.07 0.07 0.05 0.04 0.04 0.03 0.03 0.03 0.03 0.04 0.05 0.08 0.08 0.08
0.02 0.01 0.00 0.00 0.00 0.01 0.01 0.01 0.02 0.02 0.01 0.00 0.00 0.00 0.01 0.02 0.02 0.02 0.02 0.02 0.02 0.01 0.00 0.01 0.01 0.01 0.02 0.03 0.05 0.05 0.04 0.03 0.03 0.05 0.05 0.05 0.05 0.04 0.03 0.03 0.03 0.03 0.04 0.04 0.04 0.05 0.06 0.07 0.07
0.01 0.00 0.00 0.01 0.01 0.00 0.00 0.01 0.03 0.03 0.02 0.00 0.00 0.01 0.01 0.01 0.01 0.02 0.01 0.01 0.02 0.01 0.01 0.01 0.00 0.00 0.01 0.02 0.04 0.04 0.04 0.03 0.03 0.02 0.02 0.01 0.01 0.01 0.02 0.01 0.02 0.02 0.02 0.03 0.02 0.02 0.02 0.02 0.04
0.01 0.00 0.00 0.01 0.01 0.01 0.00 0.01 0.01 0.02 0.02 0.01 0.01 0.01 0.01 0.01 0.01 0.01 0.01 0.01 0.01 0.00 0.00 0.01 0.01 0.01 0.01 0.01 0.02 0.01 0.01 0.01 0.01 0.01 0.00 0.00 0.00 0.00 0.00 0.01 0.01 0.01 0.01 0.01 0.02 0.01 0.00 0.00 0.01
0.02 0.01 0.01 0.01 0.01 0.01 0.00 0.01 0.01 0.01 0.02 0.02 0.02 0.01 0.01 0.01 0.01 0.01 0.01 0.01 0.00 0.00 0.00 0.00 0.01 0.01 0.00 0.00 0.01 0.01 0.01 0.01 0.00 0.00 0.00 0.00 0.00 0.00 0.01 0.01 0.01 0.00 0.00 0.01 0.00 0.00 0.00 0.00 0.00
0.02 0.03 0.01 0.01 0.01 0.01 0.00 0.01 0.01 0.02 0.02 0.02 0.02 0.01 0.01 0.01 0.02 0.02 0.02 0.01 0.01 0.01 0.01 0.01 0.01 0.01 0.00 0.00 0.01 0.01 0.00 0.00 0.00 0.00 0.00 0.00 0.00 0.00 0.01 0.01 0.01 0.00 0.00 0.00 0.00 0.00 0.00 0.00 0.00
0.01 0.02 0.02 0.02 0.02 0.02 0.02 0.02 0.02 0.02 0.03 0.03 0.02 0.01 0.01 0.01 0.02 0.03 0.03 0.03 0.02 0.02 0.01 0.01 0.01 0.01 0.01 0.01 0.00 0.00 0.00 0.00 0.00 0.01 0.00 0.00 0.00 0.00 0.00 0.00 0.00 0.00 0.01 0.01 0.01 0.00 0.00 0.00 0.00
0.01 0.01 0.01 0.01 0.02 0.03 0.03 0.03 0.01 0.01 0.02 0.03 0.03 0.02 0.02 0.01 0.02 0.03 0.04 0.04 0.04 0.04 0.02 0.01 0.01 0.01 0.01 0.01 0.01 0.00 0.00 0.00 0.00 0.00 0.00 0.00 0.01 0.01 0.00 0.00 0.00 0.00 0.01 0.01 0.00 0.00 0.00 0.00 0.01
0.00 0.01 0.01 0.01 0.01 0.03 0.05 0.05 0.04 0.02 0.02 0.03 0.03 0.03 0.02 0.01 0.02 0.03 0.04 0.04 0.04 0.03 0.03 0.02 0.01 0.01 0.01 0.01 0.01 0.00 0.00 0.00 0.00 0.00 0.01 0.02 0.02 0.01 0.00 0.00 0.00 0.01 0.01 0.00 0.00 0.00 0.00 0.01 0.02
0.00 0.00 0.01 0.01 0.01 0.02 0.04 0.05 0.05 0.02 0.02 0.04 0.05 0.03 0.03 0.02 0.03 0.04 0.04 0.04 0.05 0.04 0.03 0.03 0.02 0.02 0.01 0.01 0.00 0.00 0.00 0.00 0.00 0.00 0.01 0.01 0.01 0.00 0.00 0.00 0.01 0.01 0.02 0.01 0.01 0.01 0.01 0.01 0.01
0.00 0.00 0.00 0.01 0.01 0.01 0.02 0.03 0.02 0.01 0.01 0.04 0.05 0.04 0.02 0.03 0.03 0.04 0.04 0.04 0.05 0.05 0.05 0.05 0.04 0.03 0.02 0.02 0.01 0.00 0.00 0.00 0.00 0.00 0.00 0.00 0.00 0.01 0.00 0.00 0.01 0.01 0.01 0.01 0.01 0.01 0.00 0.01 0.01
0.00 0.00 0.00 0.01 0.02 0.01 0.02 0.02 0.02 0.01 0.01 0.02 0.04 0.03 0.02 0.02 0.03 0.03 0.04 0.05 0.06 0.06 0.07 0.07 0.06 0.05 0.04 0.04 0.03 0.01 0.00 0.00 0.00 0.00 0.01 0.02 0.01 0.01 0.01 0.01 0.01 0.01 0.01 0.01 0.00 0.00 0.01 0.01 0.01
0.00 0.00 0.00 0.01 0.02 0.02 0.01 0.02 0.02 0.02 0.02 0.03 0.03 0.03 0.02 0.02 0.02 0.02 0.03 0.04 0.05 0.05 0.06 0.06 0.07 0.07 0.06 0.04 0.03 0.03 0.01 0.01 0.01 0.01 0.01 0.02 0.02 0.02 0.02 0.02 0.01 0.01 0.01 0.01 0.01 0.01 0.01 0.01 0.01
0.00 0.00 0.00 0.01 0.02 0.02 0.02 0.01 0.01 0.01 0.02 0.02 0.03 0.03 0.03 0.02 0.01 0.01 0.01 0.02 0.02 0.03 0.04 0.06 0.07 0.09 0.10 0.08 0.06 0.05 0.03 0.02 0.02 0.01 0.01 0.02 0.02 0.02 0.03 0.03 0.02 0.01 0.01 0.01 0.01 0.01 0.01 0.00 0.00
0.00 0.01 0.00 0.01 0.02 0.02 0.03 0.03 0.01 0.00 0.01 0.01 0.02 0.04 0.03 0.01 0.01 0.01 0.01 0.01 0.01 0.01 0.02 0.04 0.06 0.07 0.10 0.12 0.11 0.07 0.05 0.04 0.03 0.03 0.02 0.02 0.02 0.03 0.03 0.02 0.03 0.02 0.02 0.01 0.01 0.01 0.01 0.01 0.00
0.00 0.00 0.00 0.00 0.01 0.02 0.02 0.03 0.02 0.01 0.00 0.00 0.01 0.02 0.02 0.01 0.01 0.01 0.01 0.01 0.01 0.01 0.01 0.01 0.04 0.06 0.06 0.08 0.10 0.10 0.07 0.07 0.07 0.06 0.04 0.02 0.02 0.02 0.02 0.02 0.02 0.02 0.02 0.01 0.01 0.01 0.02 0.02 0.01
0.00 0.00 0.00 0.01 0.01 0.01 0.01 0.02 0.01 0.01 0.01 0.00 0.00 0.01 0.01 0.01 0.01 0.00 0.00 0.00 0.00 0.00 0.00 0.01 0.02 0.04 0.04 0.05 0.09 0.09 0.07 0.05 0.06 0.08 0.08 0.06 0.04 0.03 0.02 0.02 0.02 0.02 0.02 0.02 0.01 0.01 0.01 0.01 0.01
0.00 0.01 0.01 0.01 0.01 0.01 0.00 0.01 0.01 0.00 0.00 0.00 0.00 0.00 0.00 0.00 0.00 0.00 0.00 0.00 0.00 0.00 0.00 0.00 0.00 0.01 0.02 0.03 0.06 0.07 0.05 0.03 0.03 0.03 0.04 0.05 0.04 0.03 0.02 0.02 0.02 0.02 0.02 0.02 0.01 0.01 0.01 0.01 0.01
0.01 0.00 0.00 0.01 0.01 0.00 0.00 0.00 0.00 0.00 0.00 0.00 0.00 0.00 0.00 0.00 0.00 0.01 0.00 0.00 0.00 0.00 0.00 0.00 0.00 0.01 0.02 0.02 0.02 0.04 0.05 0.03 0.02 0.03 0.04 0.06 0.05 0.03 0.01 0.01 0.01 0.01 0.01 0.01 0.01 0.01 0.01 0.02 0.01
0.00 0.00 0.00 0.00 0.00 0.00 0.00 0.00 0.00 0.00 0.00 0.00 0.00 0.00 0.00 0.00 0.00 0.01 0.00 0.00 0.00 0.00 0.00 0.00 0.00 0.00 0.01 0.02 0.02 0.02 0.03 0.03 0.03 0.03 0.04 0.07 0.07 0.06 0.03 0.01 0.01 0.02 0.02 0.02 0.01 0.01 0.02 0.02 0.01
0.00 0.00 0.00 0.00 0.00 0.00 0.00 0.00 0.00 0.00 0.00 0.00 0.00 0.00 0.00 0.00 0.00 0.00 0.00 0.00 0.00 0.00 0.00 0.00 0.00 0.00 0.00 0.01 0.02 0.01 0.01 0.02 0.04 0.04 0.04 0.04 0.06 0.06 0.03 0.02 0.02 0.02 0.02 0.03 0.02 0.02 0.02 0.01 0.01
0.00 0.00 0.01 0.01 0.01 0.00 0.00 0.00 0.01 0.01 0.00 0.00 0.00 0.00 0.00 0.00 0.00 0.00 0.00 0.00 0.00 0.00 0.01 0.01 0.00 0.00 0.00 0.01 0.01 0.01 0.01 0.02 0.04 0.04 0.03 0.03 0.04 0.05 0.03 0.02 0.03 0.03 0.02 0.03 0.02 0.02 0.02 0.01 0.01
0.00 0.00 0.01 0.01 0.01 0.00 0.00 0.00 0.02 0.02 0.01 0.00 0.00 0.00 0.00 0.00 0.00 0.00 0.00 0.00 0.00 0.01 0.01 0.01 0.01 0.01 0.01 0.01 0.01 0.01 0.01 0.01 0.03 0.04 0.02 0.02 0.03 0.04 0.04 0.03 0.03 0.03 0.02 0.02 0.02 0.01 0.01 0.01 0.01
0.00 0.00 0.00 0.01 0.01 0.01 0.01 0.00 0.01 0.03 0.01 0.00 0.00 0.00 0.00 0.00 0.00 0.00 0.00 0.00 0.00 0.01 0.01 0.01 0.02 0.02 0.02 0.02 0.01 0.01 0.01 0.01 0.01 0.01 0.02 0.02 0.02 0.03 0.03 0.03 0.03 0.03 0.03 0.02 0.01 0.01 0.01 0.00 0.01
MSLP
1007.60 1008.79 1010.15 1011.52 1012.73 1013.66 1014.22 1014.40 1014.28 1013.97 1013.61 1013.33 1013.20 1013.21 1013.32 1013.43 1013.46 1013.32 1013.01 1012.56 1012.05 1011.57 1011.21 1011.03 1011.05 1011.20 1011.44 1011.68 1011.86 1011.96 1011.99 1011.98 1011.98 1012.04 1012.17 1012.37 1012.60 1012.83 1013.01 1013.12 1013.16 1013.14 1013.09 1013.03 1012.99 1012.97 1012.96 1012.94 1012.92
1008.33 1009.61 1011.00 1012.32 1013.42 1014.16 1014.51 1014.48 1014.16 1013.68 1013.20 1012.83 1012.64 1012.62 1012.71 1012.83 1012.88 1012.79 1012.55 1012.19 1011.78 1011.41 1011.15 1011.06 1011.14 1011.34 1011.61 1011.87 1012.08 1012.21 1012.29 1012.32 1012.37 1012.47 1012.62 1012.81 1013.02 1013.21 1013.35 1013.42 1013.43 1013.39 1013.33 1013.27 1013.22 1013.19 1013.15 1013.11 1013.06
1009.06 1010.40 1011.77 1013.01 1013.96 1014.52 1014.66 1014.44 1013.96 1013.36 1012.80 1012.37 1012.14 1012.09 1012.17 1012.29 1012.36 1012.31 1012.13 1011.85 1011.53 1011.27 1011.10 1011.09 1011.22 1011.46 1011.75 1012.02 1012.25 1012.42 1012.53 1012.62 1012.71 1012.84 1013.01 1013.19 1013.38 1013.53 1013.63 1013.67 1013.65 1013.61 1013.55 1013.50 1013.45 1013.42 1013.38 1013.32 1013.25
1009.76 1011.12 1012.45 1013.57 1014.36 1014.75 1014.72 1014.35 1013.75 1013.07 1012.46 1012.01 1011.77 1011.71 1011.78 1011.90 1011.98 1011.96 1011.83 1011.63 1011.40 1011.21 1011.13 1011.17 1011.33 1011.58 1011.87 1012.15 1012.39 1012.57 1012.72 1012.84 1012.98 1013.13 1013.31 1013.49 1013.66 1013.78 1013.85 1013.87 1013.85 1013.80 1013.76 1013.73 1013.71 1013.68 1013.65 1013.59 1013.51
1010.42 1011.77 1013.02 1014.01 1014.64 1014.86 1014.69 1014.21 1013.54 1012.84 1012.22 1011.79 1011.56 1011.52 1011.60 1011.72 1011.81 1011.81 1011.73 1011.58 1011.42 1011.30 1011.27 1011.34 1011.52 1011.76 1012.02 1012.28 1012.50 1012.69 1012.85 1013.00 1013.16 1013.35 1013.54 1013.73 1013.88 1013.99 1014.05 1014.05 1014.03 1014.01 1013.99 1013.98 1013.99 1014.00 1013.98 1013.93 1013.86
1011.01 1012.31 1013.44 1014.28 1014.75 1014.82 1014.54 1014.00 1013.32 1012.64 1012.08 1011.70 1011.53 1011.52 1011.62 1011.76 1011.86 1011.88 1011.83 1011.73 1011.62 1011.55 1011.54 1011.63 1011.79 1012.00 1012.22 1012.43 1012.62 1012.79 1012.95 1013.11 1013.30 1013.50 1013.72 1013.91 1014.07 1014.18 1014.24 1014.25 1014.23 1014.22 1014.23 1014.26 1014.30 1014.33 1014.35 1014.32 1014.26
1011.52 1012.71 1013.69 1014.35 1014.66 1014.60 1014.24 1013.68 1013.04 1012.44 1011.98 1011.71 1011.62 1011.68 1011.82 1011.97 1012.09 1012.13 1012.11 1012.04 1011.96 1011.92 1011.93 1012.01 1012.14 1012.31 1012.48 1012.63 1012.77 1012.91 1013.05 1013.22 1013.42 1013.64 1013.87 1014.09 1014.26 1014.38 1014.44 1014.46 1014.46 1014.46 1014.49 1014.54 1014.61 1014.68 1014.72 1014.72 1014.69
1011.91 1012.94 1013.72 1014.20 1014.34 1014.17 1013.77 1013.24 1012.68 1012.20 1011.88 1011.74 1011.76 1011.90 1012.09 1012.28 1012.41 1012.47 1012.46 1012.41 1012.37 1012.35 1012.37 1012.44 1012.55 1012.67 1012.78 1012.88 1012.97 1013.07 1013.19 1013.35 1013.56 1013.79 1014.04 1014.28 1014.47 1014.60 1014.67 1014.69 1014.70 1014.71 1014.75 1014.81 1014.90 1014.99 1015.06 1015.10 1015.09
1012.15 1012.98 1013.55 1013.83 1013.81 1013.56 1013.14 1012.66 1012.22 1011.90 1011.73 1011.74 1011.88 1012.10 1012.35 1012.57 1012.71 1012.78 1012.79 1012.77 1012.74 1012.74 1012.78 1012.85 1012.94 1013.03 1013.11 1013.16 1013.21 1013.27 1013.37 1013.52 1013.72 1013.97 1014.24 1014.49 1014.69 1014.84 1014.92 1014.95 1014.95 1014.96 1014.99 1015.05 1015.15 1015.26 1015.36 1015.43 1015.45
1012.26 1012.86 1013.21 1013.29 1013.15 1012.83 1012.42 1012.02 1011.70 1011.53 1011.53 1011.68 1011.93 1012.23 1012.52 1012.75 1012.91 1012.98 1013.00 1012.99 1012.99 1013.02 1013.08 1013.17 1013.27 1013.36 1013.41 1013.45 1013.47 1013.51 1013.58 1013.72 1013.92 1014.17 1014.44 1014.71 1014.93 1015.09 1015.17 1015.20 1015.20 1015.20 1015.21 1015.27 1015.36 1015.48 1015.60 1015.70 1015.77
1012.26 1012.65 1012.79 1012.70 1012.45 1012.08 1011.70 1011.38 1011.19 1011.17 1011.30 1011.56 1011.89 1012.24 1012.55 1012.79 1012.93 1013.00 1013.02 1013.03 1013.06 1013.12 1013.23 1013.36 1013.49 1013.59 1013.67 1013.70 1013.72 1013.75 1013.81 1013.93 1014.11 1014.36 1014.63 1014.90 1015.14 1015.31 1015.41 1015.44 1015.43 1015.42 1015.42 1015.46 1015.55 1015.68 1015.82 1015.95 1016.05
1012.24 1012.43 1012.41 1012.19 1011.85 1011.47 1011.12 1010.88 1010.79 1010.86 1011.08 1011.41 1011.78 1012.14 1012.44 1012.65 1012.77 1012.82 1012.84 1012.86 1012.92 1013.03 1013.18 1013.37 1013.56 1013.72 1013.83 1013.90 1013.93 1013.96 1014.01 1014.11 1014.28 1014.51 1014.77 1015.04 1015.29 1015.47 1015.59 1015.64 1015.64 1015.63 1015.63 1015.66 1015.75 1015.88 1016.04 1016.20 1016.34
1012.28 1012.33 1012.18 1011.88 1011.49 1011.11 1010.79 1010.60 1010.57 1010.69 1010.94 1011.27 1011.63 1011.95 1012.21 1012.37 1012.45 1012.48 1012.49 1012.52 1012.61 1012.76 1012.97 1013.23 1013.49 1013.72 1013.89 1014.01 1014.08 1014.12 1014.16 1014.25 1014.39 1014.59 1014.84 1015.11 1015.36 1015.57 1015.72 1015.79 1015.82 1015.83 1015.84 1015.88 1015.97 1016.11 1016.29 1016.49 1016.65
1012.47 1012.43 1012.21 1011.87 1011.47 1011.09 1010.80 1010.62 1010.59 1010.69 1010.91 1011.18 1011.47 1011.72 1011.90 1012.01 1012.04 1012.04 1012.03 1012.07 1012.18 1012.37 1012.64 1012.96 1013.29 1013.60 1013.85 1014.03 1014.14 1014.21 1014.26 1014.33 1014.44 1014.61 1014.83 1015.09 1015.34 1015.58 1015.77 1015.89 1015.97 1016.02 1016.06 1016.13 1016.23 1016.39 1016.59 1016.80 1017.00
1012.84 1012.76 1012.52 1012.17 1011.79 1011.42 1011.13 1010.93 1010.85 1010.88 1011.00 1011.16 1011.34 1011.49 1011.58 1011.62 1011.61 1011.57 1011.56 1011.59 1011.71 1011.93 1012.23 1012.61 1013.01 1013.39 1013.72 1013.97 1014.14 1014.24 1014.30 1014.35 1014.44 1014.57 1014.76 1014.99 1015.25 1015.52 1015.75 1015.94 1016.08 1016.19 1016.28 1016.39 1016.53 1016.70 1016.92 1017.15 1017.36
1013.36 1013.28 1013.06 1012.75 1012.39 1012.03 1011.72 1011.46 1011.29 1011.20 1011.17 1011.20 1011.23 1011.27 1011.28 1011.26 1011.21 1011.15 1011.13 1011.16 1011.27 1011.49 1011.81 1012.22 1012.67 1013.11 1013.52 1013.85 1014.08 1014.23 1014.31 1014.35 1014.40 1014.49 1014.64 1014.85 1015.11 1015.39 1015.67 1015.93 1016.15 1016.33 1016.49 1016.64 1016.81 1017.01 1017.24 1017.48 1017.71
1013.97 1013.92 1013.74 1013.47 1013.15 1012.81 1012.46 1012.13 1011.83 1011.58 1011.39 1011.25 1011.15 1011.07 1011.01 1010.95 1010.89 1010.83 1010.79 1010.81 1010.91 1011.11 1011.42 1011.83 1012.30 1012.79 1013.26 1013.67 1013.97 1014.18 1014.29 1014.33 1014.37 1014.42 1014.52 1014.69 1014.94 1015.23 1015.56 1015.87 1016.16 1016.42 1016.65 1016.85 1017.06 1017.28 1017.52 1017.77 1018.00
1014.55 1014.54 1014.43 1014.23 1013.96 1013.62 1013.23 1012.80 1012.37 1011.95 1011.58 1011.28 1011.05 1010.89 1010.78 1010.70 1010.65 1010.60 1010.57 1010.57 1010.64 1010.80 1011.07 1011.45 1011.92 1012.44 1012.96 1013.44 1013.82 1014.09 1014.25 1014.32 1014.34 1014.35 1014.41 1014.55 1014.76 1015.05 1015.39 1015.76 1016.11 1016.44 1016.73 1016.99 1017.23 1017.46 1017.71 1017.96 1018.21
1014.98 1015.03 1015.00 1014.89 1014.68 1014.36 1013.93 1013.41 1012.83 1012.24 1011.70 1011.25 1010.91 1010.69 1010.57 1010.51 1010.48 1010.46 1010.44 1010.43 1010.46 1010.56 1010.76 1011.08 1011.53 1012.06 1012.62 1013.17 1013.63 1013.98 1014.20 1014.30 1014.32 1014.31 1014.32 1014.41 1014.58 1014.85 1015.20 1015.60 1016.00 1016.37 1016.71 1017.01 1017.28 1017.53 1017.79 1018.04 1018.30
1015.19 1015.32 1015.40 1015.40 1015.26 1014.97 1014.51 1013.89 1013.18 1012.43 1011.74 1011.16 1010.73 1010.47 1010.36 1010.34 1010.37 1010.39 1010.39 1010.36 1010.34 1010.37 1010.49 1010.74 1011.14 1011.65 1012.25 1012.85 1013.39 1013.83 1014.12 1014.26 1014.29 1014.27 1014.25 1014.28 1014.41 1014.65 1014.98 1015.38 1015.81 1016.22 1016.60 1016.93 1017.22 1017.48 1017.74 1018.00 1018.27
1015.14 1015.38 1015.60 1015.72 1015.68 1015.43 1014.95 1014.26 1013.42 1012.53 1011.70 1011.00 1010.51 1010.23 1010.14 1010.17 1010.27 1010.35 1010.38 1010.35 1010.28 1010.23 1010.26 1010.43 1010.76 1011.25 1011.85 1012.50 1013.11 1013.62 1013.98 1014.18 1014.24 1014.21 1014.15 1014.14 1014.22 1014.42 1014.72 1015.12 1015.55 1015.98 1016.38 1016.73 1017.03 1017.30 1017.56 1017.83 1018.11
1014.87 1015.25 1015.63 1015.91 1015.98 1015.79 1015.30 1014.54 1013.59 1012.57 1011.60 1010.81 1010.25 1009.96 1009.91 1010.01 1010.18 1010.33 1010.40 1010.37 1010.27 1010.15 1010.10 1010.17 1010.43 1010.88 1011.46 1012.13 1012.79 1013.37 1013.79 1014.05 1014.13 1014.10 1014.03 1013.99 1014.02 1014.18 1014.45 1014.82 1015.25 1015.68 1016.09 1016.45 1016.75 1017.02 1017.28 1017.55 1017.84
1014.46 1015.02 1015.59 1016.03 1016.22 1016.09 1015.59 1014.77 1013.72 1012.57 1011.49 1010.60 1009.99 1009.69 1009.67 1009.83 1010.08 1010.31 1010.43 1010.42 1010.31 1010.15 1010.02 1010.01 1010.19 1010.57 1011.13 1011.79 1012.48 1013.09 1013.56 1013.85 1013.97 1013.96 1013.88 1013.81 1013.82 1013.93 1014.17 1014.52 1014.93 1015.36 1015.76 1016.11 1016.41 1016.67 1016.92 1017.18 1017.47
1014.01 1014.77 1015.52 1016.12 1016.43 1016.35 1015.85 1014.97 1013.82 1012.56 1011.36 1010.39 1009.73 1009.43 1009.43 1009.66 1009.99 1010.30 1010.49 1010.52 1010.42 1010.23 1010.06 1009.98 1010.09 1010.40 1010.90 1011.53 1012.20 1012.82 1013.32 1013.64 1013.78 1013.78 1013.71 1013.63 1013.62 1013.71 1013.92 1014.24 1014.63 1015.03 1015.42 1015.75 1016.03 1016.27 1016.49 1016.74 1017.02
1013.59 1014.54 1015.47 1016.21 1016.61 1016.56 1016.05 1015.10 1013.87 1012.51 1011.23 1010.18 1009.48 1009.17 1009.21 1009.50 1009.91 1010.30 1010.57 1010.67 1010.60 1010.42 1010.23 1010.10 1010.14 1010.38 1010.81 1011.38 1012.01 1012.61 1013.10 1013.43 1013.59 1013.61 1013.55 1013.48 1013.46 1013.54 1013.73 1014.02 1014.38 1014.75 1015.10 1015.41 1015.65 1015.85 1016.04 1016.25 1016.51
1013.25 1014.35 1015.41 1016.25 1016.70 1016.66 1016.12 1015.12 1013.82 1012.39 1011.04 1009.95 1009.23 1008.93 1009.00 1009.34 1009.83 1010.31 1010.68 1010.86 1010.85 1010.71 1010.52 1010.38 1010.37 1010.54 1010.89 1011.39 1011.95 1012.50 1012.97 1013.29 1013.45 1013.49 1013.45 1013.40 1013.39 1013.46 1013.63 1013.89 1014.21 1014.55 1014.85 1015.10 1015.30 1015.45 1015.59 1015.76 1015.98
1012.94 1014.15 1015.28 1016.15 1016.60 1016.54 1015.97 1014.93 1013.59 1012.13 1010.77 1009.67 1008.96 1008.68 1008.79 1009.19 1009.76 1010.32 1010.78 1011.05 1011.13 1011.06 1010.91 1010.77 1010.73 1010.85 1011.13 1011.55 1012.03 1012.52 1012.94 1013.24 1013.41 1013.47 1013.45 1013.42 1013.42 1013.50 1013.66 1013.89 1014.16 1014.44 1014.69 1014.88 1015.01 1015.11 1015.19 1015.30 1015.47
1012.61 1013.84 1014.96 1015.79 1016.20 1016.10 1015.49 1014.45 1013.11 1011.68 1010.35 1009.30 1008.64 1008.41 1008.57 1009.03 1009.66 1010.30 1010.85 1011.21 1011.39 1011.39 1011.30 1011.20 1011.17 1011.25 1011.48 1011.82 1012.24 1012.66 1013.04 1013.32 1013.49 1013.57 1013.58 1013.58 1013.60 1013.68 1013.82 1014.01 1014.23 1014.45 1014.63 1014.75 1014.82 1014.85 1014.87 1014.92 1015.03
1012.17 1013.32 1014.34 1015.08 1015.40 1015.24 1014.61 1013.60 1012.33 1010.99 1009.77 1008.83 1008.26 1008.10 1008.32 1008.83 1009.50 1010.20 1010.81 1011.26 1011.52 1011.62 1011.61 1011.57 1011.57 1011.66 1011.86 1012.17 1012.53 1012.91 1013.25 1013.52 1013.70 1013.80 1013.85 1013.87 1013.91 1013.99 1014.11 1014.26 1014.43 1014.58 1014.69 1014.74 1014.74 1014.72 1014.68 1014.68 1014.73
1011.51 1012.51 1013.37 1013.95 1014.16 1013.95 1013.34 1012.40 1011.26 1010.08 1009.03 1008.24 1007.79 1007.73 1008.00 1008.54 1009.23 1009.95 1010.60 1011.11 1011.45 1011.65 1011.74 1011.78 1011.85 1011.98 1012.19 1012.48 1012.83 1013.19 1013.52 1013.79 1013.99 1014.12 1014.21 1014.27 1014.33 1014.40 1014.50 1014.61 1014.72 1014.81 1014.85 1014.84 1014.79 1014.71 1014.64 1014.59 1014.60
Thickness
5785 5785 5783 5770 5745 5721 5716 5725 5733 5734 5736 5742 5746 5743 5736 5732 5729 5726 5743 5752 5753 5754 5755 5756 5757 5758 5759 5759 5760 5760 5760 5761 5762 5763 5763 5764 5764 5764 5765 5765 5765 5765 5765 5765 5764 5764 5764 5765 5765
5784 5782 5772 5753 5724 5704 5712 5726 5730 5736 5741 5745 5745 5741 5736 5734 5739 5740 5745 5750 5752 5752 5753 5754 5754 5755 5756 5757 5757 5757 5758 5758 5759 5759 5760 5760 5760 5761 5761 5761 5760 5761 5761 5761 5761 5761 5760 5761 5762
5783 5778 5756 5735 5716 5708 5716 5728 5732 5739 5745 5745 5740 5739 5736 5734 5740 5742 5747 5749 5750 5750 5751 5751 5752 5753 5753 5754 5754 5755 5755 5755 5755 5756 5756 5756 5756 5756 5757 5757 5757 5757 5757 5757 5757 5757 5757 5758 5757
5775 5761 5745 5725 5715 5720 5726 5732 5736 5738 5742 5743 5739 5732 5736 5742 5744 5745 5748 5748 5747 5747 5748 5749 5749 5750 5750 5751 5751 5751 5751 5751 5752 5752 5752 5752 5753 5752 5752 5752 5753 5752 5752 5752 5752 5753 5753 5753 5753
5766 5745 5725 5711 5715 5724 5730 5736 5739 5736 5735 5737 5736 5728 5730 5740 5746 5747 5746 5746 5745 5745 5746 5746 5747 5747 5747 5748 5748 5748 5748 5748 5748 5748 5748 5748 5748 5748 5748 5748 5748 5748 5748 5748 5748 5748 5748 5748 5748
5747 5733 5709 5703 5713 5724 5731 5738 5737 5733 5733 5735 5733 5727 5727 5738 5741 5743 5744 5743 5743 5743 5743 5743 5744 5744 5744 5745 5744 5745 5744 5744 5745 5745 5744 5744 5744 5744 5744 5744 5744 5744 5744 5744 5744 5744 5744 5744 5744
5737 5721 5709 5709 5711 5719 5730 5737 5733 5730 5730 5732 5734 5725 5726 5734 5739 5741 5741 5741 5740 5740 5740 5740 5740 5741 5741 5741 5741 5741 5741 5741 5741 5741 5741 5740 5740 5740 5740 5739 5739 5739 5739 5739 5739 5739 5739 5739 5739
5741 5722 5710 5708 5711 5717 5731 5735 5735 5733 5730 5738 5737 5724 5723 5733 5738 5738 5737 5736 5737 5737 5737 5737 5737 5737 5737 5737 5738 5737 5737 5737 5737 5737 5736 5736 5735 5735 5735 5735 5735 5735 5735 5735 5735 5735 5735 5734 5734
5743 5714 5704 5710 5713 5719 5730 5730 5733 5737 5733 5733 5734 5733 5734 5736 5735 5733 5731 5730 5731 5732 5732 5733 5733 5733 5734 5734 5733 5733 5733 5733 5733 5732 5732 5731 5731 5731 5730 5730 5730 5730 5730 5730 5730 5729 5729 5729 5729
5730 5707 5713 5722 5724 5724 5727 5727 5728 5728 5724 5724 5726 5730 5733 5732 5729 5726 5724 5724 5725 5726 5728 5729 5729 5730 5730 5730 5730 5729 5729 5728 5728 5727 5727 5726 5726 5725 5725 5725 5725 5725 5725 5725 5724 5724 5724 5724 5724
5727 5715 5721 5726 5729 5728 5725 5724 5727 5721 5714 5718 5721 5723 5726 5725 5724 5723 5722 5722 5723 5724 5725 5726 5726 5726 5726 5726 5726 5725 5724 5724 5723 5723 5722 5722 5721 5721 5720 5720 5720 5720 5720 5719 5719 5719 5718 5718 5718
5723 5721 5724 5725 5730 5727 5723 5721 5718 5717 5718 5725 5726 5725 5723 5721 5720 5720 5720 5720 5721 5721 5722 5723 5723 5723 5722 5722 5721 5721 5720 5719 5719 5718 5718 5717 5717 5716 5715 5714 5714 5714 5714 5714 5714 5714 5713 5713 5713
5719 5719 5724 5725 5725 5723 5721 5717 5715 5714 5720 5724 5723 5721 5719 5717 5717 5718 5719 5718 5718 5718 5719 5720 5720 5720 5719 5718 5717 5717 5716 5715 5715 5714 5714 5713 5712 5711 5711 5710 5710 5709 5709 5709 5709 5709 5708 5708 5708
5718 5717 5717 5719 5719 5719 5714 5711 5711 5710 5716 5717 5716 5713 5713 5713 5714 5714 5714 5714 5714 5715 5716 5717 5717 5717 5716 5715 5714 5713 5712 5711 5711 5710 5710 5709 5708 5707 5706 5705 5705 5704 5704 5704 5704 5703 5703 5702 5702
5719 5710 5708 5711 5714 5713 5711 5700 5703 5709 5711 5709 5709 5708 5709 5709 5710 5710 5711 5711 5712 5712 5713 5713 5714 5714 5713 5712 5711 5709 5709 5708 5707 5706 5706 5705 5704 5703 5702 5701 5700 5699 5699 5699 5698 5697 5697 5697 5697
5708 5697 5689 5701 5707 5708 5702 5687 5701 5707 5706 5702 5702 5703 5704 5705 5707 5708 5709 5709 5710 5710 5710 5710 5711 5710 5710 5709 5708 5706 5705 5704 5703 5702 5702 5701 5700 5699 5698 5696 5695 5694 5694 5693 5693 5691 5690 5689 5689
5689 5681 5683 5692 5702 5702 5696 5688 5698 5703 5702 5698 5698 5698 5699 5700 5703 5704 5706 5706 5707 5707 5707 5706 5707 5707 5707 5706 5705 5703 5701 5700 5699 5699 5698 5697 5696 5695 5694 5692 5690 5689 5688 5687 5687 5685 5683 5682 5682
5680 5680 5682 5683 5694 5694 5688 5687 5695 5698 5698 5696 5695 5695 5695 5696 5699 5702 5703 5704 5703 5703 5703 5703 5703 5703 5703 5702 5700 5698 5697 5696 5695 5695 5694 5693 5692 5691 5689 5687 5686 5684 5683 5681 5680 5678 5677 5676 5675
5689 5682 5680 5684 5694 5689 5683 5683 5689 5693 5693 5692 5691 5691 5692 5694 5698 5700 5700 5700 5699 5699 5699 5699 5699 5698 5698 5696 5694 5693 5691 5691 5690 5690 5689 5689 5687 5686 5685 5683 5681 5679 5677 5675 5673 5672 5670 5668 5668
5688 5680 5678 5684 5691 5686 5680 5680 5687 5689 5690 5691 5691 5689 5690 5692 5693 5695 5695 5695 5695 5695 5695 5694 5694 5694 5694 5693 5691 5690 5688 5687 5686 5686 5685 5684 5683 5682 5680 5678 5676 5674 5671 5669 5667 5665 5662 5660 5659
5684 5680 5680 5679 5683 5683 5678 5675 5681 5687 5690 5691 5690 5690 5690 5691 5690 5690 5690 5691 5691 5691 5691 5692 5690 5690 5689 5689 5687 5685 5683 5682 5680 5680 5679 5679 5678 5677 5675 5674 5671 5669 5666 5663 5661 5658 5655 5652 5650
5678 5690 5686 5681 5671 5663 5671 5656 5672 5678 5681 5684 5686 5686 5687 5688 5689 5688 5687 5687 5688 5688 5688 5688 5687 5686 5685 5684 5683 5680 5676 5673 5674 5674 5674 5674 5673 5672 5670 5668 5666 5663 5660 5658 5656 5653 5650 5647 5644
5685 5690 5684 5678 5668 5659 5660 5653 5661 5673 5674 5679 5683 5685 5685 5686 5686 5686 5686 5686 5686 5686 5684 5683 5682 5681 5680 5679 5678 5676 5673 5670 5669 5669 5669 5668 5668 5666 5665 5663 5661 5658 5656 5653 5651 5648 5645 5642 5639
5688 5679 5672 5662 5655 5645 5653 5648 5652 5663 5673 5679 5682 5683 5683 5683 5683 5683 5683 5682 5681 5681 5679 5679 5677 5676 5675 5674 5673 5671 5669 5666 5664 5664 5663 5662 5661 5661 5659 5658 5656 5653 5651 5649 5646 5643 5641 5638 5635
5677 5660 5644 5642 5635 5638 5652 5646 5653 5673 5678 5680 5680 5680 5680 5679 5678 5677 5676 5676 5675 5674 5674 5673 5672 5671 5670 5670 5668 5667 5665 5663 5661 5659 5658 5657 5656 5655 5654 5653 5650 5648 5646 5644 5641 5638 5636 5633 5630
5669 5660 5641 5634 5630 5634 5645 5642 5659 5676 5678 5679 5679 5677 5675 5673 5672 5672 5672 5672 5670 5670 5669 5668 5667 5666 5666 5665 5664 5663 5661 5659 5657 5656 5654 5653 5652 5651 5649 5647 5645 5643 5641 5639 5636 5633 5631 5629 5626
5663 5655 5656 5639 5634 5629 5634 5645 5660 5672 5672 5673 5672 5670 5668 5668 5667 5667 5667 5667 5666 5665 5664 5663 5663 5662 5661 5660 5659 5658 5656 5655 5653 5651 5650 5649 5648 5646 5644 5642 5640 5638 5636 5634 5631 5628 5626 5623 5621
5668 5656 5640 5633 5624 5621 5631 5637 5644 5659 5663 5664 5664 5663 5663 5663 5662 5662 5662 5661 5660 5660 5659 5658 5658 5657 5656 5655 5654 5653 5651 5650 5648 5646 5644 5643 5642 5641 5639 5636 5634 5632 5630 5628 5625 5623 5620 5618 5616
5654 5649 5640 5629 5627 5619 5619 5633 5657 5658 5662 5661 5661 5661 5660 5658 5657 5657 5656 5656 5655 5654 5653 5652 5652 5651 5649 5648 5647 5646 5645 5644 5642 5640 5639 5638 5636 5634 5633 5630 5628 5626 5623 5621 5619 5616 5614 5612 5610
5655 5648 5638 5630 5625 5619 5617 5630 5661 5659 5660 5659 5658 5657 5656 5655 5653 5652 5650 5649 5649 5648 5646 5645 5644 5644 5643 5642 5641 5640 5638 5637 5635 5634 5632 5631 5629 5628 5626 5624 5621 5619 5617 5614 5612 5610 5608 5606 5604